STARLINK-35936

Last updated on Wed Dec 31 2025 00:02:06 GMT+0000 (Coordinated Universal Time)

1 66620U 25271D 25364.52912526 .00077026 00000+0 19170-2 0 9990 2 66620 53.1607 102.9051 0001384 46.9425 313.1696 15.39607923 6952
UTC large
Height (km)
Speed (km/s)
/
Latitude / Longitude
Inclination (degrees)
Orbital Period (minutes)
Azimuth
Elevation
Range (km)
Doppler Factor

Next 0 passes for location: London (51.5072 / 0.1276)

Sorry there are no passes over London.